Grand Rapids, MI

12:07 AM EST on December 14, 2017 (GMT -0500)
Gerald R. Ford International

Weather History for KGRR - December, 2012

Change the Weather History Date:

Sunday, December 2, 2012

  Actual Average Record
Temperature  
Mean Temperature 47 °F 34 °F  
Max Temperature 58 °F 39 °F 67 °F (1982)
Min Temperature 35 °F 28 °F -11 °F (1976)
Degree Days  
Heating Degree Days 18 31  
Month to date heating degree days 34 62  
Since 1 July heating degree days 1343 1400  
Cooling Degree Days 0 0  
Month to date cooling degree days 0 0  
Year to date cooling degree days 1039 699  
Moisture  
Dew Point 47 °F    
Average Humidity 86    
Maximum Humidity 100    
Minimum Humidity 72    
Precipitation  
Precipitation 0.34 in 0.10 in 1.48 in (1982)
Month to date precipitation 0.34 0.19  
Year to date precipitation 31.34 35.96  
Snow  
Snow 0.00 in 0.50 in 4.80 in (1985)
Month to date snowfall 0.0 1.0  
Since 1 July snowfall 0.3 8.3  
Snow Depth 0.00 in    
Sea Level Pressure  
Sea Level Pressure 29.98 in    
Wind  
Wind Speed 8 mph (WSW)    
Max Wind Speed 18 mph    
Max Gust Speed 25 mph    
Visibility 5 miles    
Events Fog , Rain , Thunderstorm    
T = Trace of Precipitation, MM = Missing Value Source: NWS Daily Summary

Daily Weather History Graph

Daily Weather History Graph

Search for Another Location

Airport or City:

Trip Planner

Search our weather history database for the weather conditions in past years. The results will help you decide how hot, cold, wet, or windy it might be!

Date:

Astronomy

Dec. 02, 2012 Rise Set
Actual Time 7:54 AM EST 5:08 PM EST
Civil Twilight 7:23 AM EST 5:40 PM EST
Nautical Twilight 6:47 AM EST 6:15 PM EST
Astronomical Twilight 6:13 AM EST 6:49 PM EST
Moon 8:57 PM EST (12/2) 10:42 AM EST (12/2)
Length of Visible Light 10h 17m
Length of Day
9h 13m
Waning Gibbous, 86% of the Moon is Illuminated
Dec 2
Waning Gibbous
Dec 6
Last Quarter
Dec 13
New
Dec 20
First Quarter
Dec 28
Full

Hourly Weather History & Observations

Time (EST) Temp. Windchill Dew Point Humidity Pressure Visibility Wind Dir Wind Speed Gust Speed Precip Events Conditions
12:23 AM 57.2 °F - 50.0 °F 77% 29.90 in 8.0 mi SSW 16.1 mph 21.9 mph 0.01 in Rain Light Rain
12:53 AM 57.0 °F - 51.1 °F 81% 29.91 in 10.0 mi SSW 13.8 mph - 0.02 in Rain Light Rain
1:53 AM 55.9 °F - 50.0 °F 80% 29.90 in 10.0 mi SSW 9.2 mph - 0.00 in Rain Light Rain
2:53 AM 57.9 °F - 48.9 °F 72% 29.89 in 10.0 mi SW 9.2 mph - 0.00 in   Mostly Cloudy
3:48 AM 55.4 °F - 51.8 °F 88% 29.88 in 3.0 mi SSW 10.4 mph - 0.21 in Rain , Thunderstorm Light Thunderstorms and Rain
3:53 AM 55.0 °F - 51.1 °F 86% 29.89 in 7.0 mi SSW 9.2 mph - 0.22 in Rain , Thunderstorm Light Thunderstorms and Rain
3:59 AM 55.4 °F - 51.8 °F 88% 29.89 in 4.0 mi SSW 8.1 mph - 0.03 in Rain Heavy Rain
4:53 AM 55.0 °F - 51.1 °F 86% 29.88 in 6.0 mi SSW 6.9 mph - 0.11 in Rain Light Rain
5:53 AM 54.0 °F - 51.1 °F 90% 29.88 in 9.0 mi SSW 5.8 mph - 0.00 in   Overcast
6:44 AM 55.4 °F - 51.8 °F 88% 29.88 in 10.0 mi SW 13.8 mph - 0.00 in Rain Light Rain
6:53 AM 55.9 °F - 51.1 °F 84% 29.89 in 10.0 mi SW 12.7 mph - 0.00 in Rain Light Rain
7:53 AM 55.9 °F - 52.0 °F 87% 29.90 in 9.0 mi SW 12.7 mph - 0.00 in   Overcast
8:53 AM 55.0 °F - 52.0 °F 89% 29.91 in 4.0 mi WSW 11.5 mph - 0.00 in   Light Drizzle
9:04 AM 55.4 °F - 51.8 °F 88% 29.91 in 2.0 mi WSW 13.8 mph - 0.00 in   Light Drizzle
9:29 AM 53.6 °F - 51.8 °F 94% 29.92 in 2.0 mi WSW 15.0 mph - 0.00 in   Light Drizzle
9:53 AM 54.0 °F - 52.0 °F 93% 29.93 in 2.5 mi WSW 11.5 mph - 0.00 in   Light Drizzle
10:19 AM 53.6 °F - 51.8 °F 94% 29.93 in 3.0 mi WSW 9.2 mph - 0.00 in   Light Drizzle
10:53 AM 55.0 °F - 52.0 °F 89% 29.95 in 4.0 mi West 9.2 mph - 0.00 in   Overcast
11:53 AM 55.0 °F - 52.0 °F 89% 29.96 in 4.0 mi West 8.1 mph - N/A   Overcast
12:53 PM 55.9 °F - 51.1 °F 84% 29.95 in 4.0 mi West 8.1 mph - N/A   Haze
1:23 PM 55.4 °F - 50.0 °F 82% 29.95 in 5.0 mi West 9.2 mph - N/A   Haze
1:53 PM 57.0 °F - 50.0 °F 77% 29.95 in 5.0 mi WNW 10.4 mph - N/A   Haze
2:14 PM 57.2 °F - 48.2 °F 72% 29.95 in 6.0 mi WNW 11.5 mph - N/A   Haze
2:53 PM 55.9 °F - 48.0 °F 75% 29.96 in 6.0 mi WNW 11.5 mph - N/A   Haze
3:53 PM 55.4 °F - 46.4 °F 72% 29.99 in 6.0 mi West 10.4 mph - N/A   Haze
4:53 PM 52.0 °F - 46.0 °F 80% 30.01 in 5.0 mi WSW 9.2 mph - N/A   Haze
5:17 PM 51.8 °F - 44.6 °F 76% 30.02 in 5.0 mi West 5.8 mph - N/A   Haze
5:53 PM 48.9 °F - 44.1 °F 83% 30.04 in 6.0 mi WSW 4.6 mph - N/A   Haze
6:53 PM 46.9 °F - 44.1 °F 90% 30.07 in 5.0 mi SW 5.8 mph - N/A   Mostly Cloudy
7:43 PM 42.8 °F 40.1 °F 39.2 °F 87% 30.08 in 2.5 mi NNE 4.6 mph - N/A   Scattered Clouds
7:53 PM 42.1 °F - 39.0 °F 89% 30.09 in 2.5 mi Calm Calm - N/A   Scattered Clouds
8:53 PM 41.0 °F - 39.9 °F 96% 30.10 in 2.0 mi Calm Calm - N/A Fog Clear
9:28 PM 39.2 °F - 37.4 °F 93% 30.09 in 0.5 mi Calm Calm - N/A Fog Fog
9:33 PM 37.4 °F - 37.4 °F 100% 30.09 in 0.2 mi Calm Calm - N/A Fog Fog
9:53 PM 37.9 °F 32.1 °F 36.0 °F 93% 30.10 in 0.2 mi South 8.1 mph - N/A Fog Fog
10:36 PM 37.4 °F - 35.6 °F 93% 30.09 in 0.2 mi Calm Calm - N/A Fog Fog
10:53 PM 36.0 °F - 35.1 °F 97% 30.11 in 0.1 mi Calm Calm - N/A Fog Fog
11:07 PM 35.6 °F - 35.6 °F 100% 30.10 in 0.1 mi Calm Calm - N/A Fog Fog
11:29 PM 35.6 °F - 33.8 °F 93% 30.09 in 0.2 mi Calm Calm - N/A Fog Fog
11:53 PM 35.1 °F 32.2 °F 33.1 °F 92% 30.09 in 0.2 mi East 3.5 mph - N/A Fog Fog